Salinas Da Margarida, Brazil
Current Conditions -  °F | °C
As of 9:00 PM on Thursday 27 Nov 2014 (Local Time) from SBSV Reporting Station
Scattered Clouds Scattered Clouds  
Wind Chill: 79°   Ceiling: Unl
Heat Index: 82°   Visibility: 6mi
Dew Point: 72°   Wind: 12mph
Humidity: 78%   Direction: 70°ENE
Pressure: 29.94"   Gusts: NA
Location:  12.88°S, 38.76°W
Report Text: SBSV 280000Z 07010KT 9999 SCT017 26/22 Q1014
Loading
Personal Weather Stations






























Interactive Weather Map New forecast layout! Learn more

10-Day Weather Forecast

Advertisements
Track Severe Weather on mobile